This is the latest recevied weather packets stored in our database for station/object FW0690. If no packets are shown the sender has not sent any weather packets the latest 10 day(s).
| Time | Temp. | Humidity | Pressure | Rain* | Wind** | Luminosity | Snow |
|---|---|---|---|---|---|---|---|
| 1777968519 | 21.67° C | 37% | 1014.3 hPa | - | - | 32 W/m² | - |
| 1777968159 | 21.67° C | 37% | 1014.3 hPa | - | - | 26 W/m² | - |
| 1777967799 | 21.11° C | 37% | 1014.3 hPa | - | - | 28 W/m² | - |
| 1777967439 | 21.11° C | 38% | 1014.4 hPa | - | - | 29 W/m² | - |
| 1777967079 | 21.11° C | 39% | 1014.3 hPa | - | - | 29 W/m² | - |
| 1777966719 | 20.56° C | 40% | 1014.3 hPa | - | - | 31 W/m² | - |
| 1777966359 | 20.56° C | 41% | 1014.3 hPa | - | - | 27 W/m² | - |
| 1777965999 | 20.56° C | 42% | 1014.3 hPa | - | - | 29 W/m² | - |
| 1777965639 | 20° C | 44% | 1014.4 hPa | - | - | 28 W/m² | - |
| 1777965279 | 19.44° C | 44% | 1014.4 hPa | - | - | 28 W/m² | - |
| 1777964919 | 19.44° C | 45% | 1014.4 hPa | - | - | 27 W/m² | - |
| 1777964559 | 18.89° C | 45% | 1014.4 hPa | - | - | 27 W/m² | - |
| 1777964199 | 18.89° C | 46% | 1014.4 hPa | - | - | 26 W/m² | - |
| 1777963839 | 18.33° C | 46% | 1014.4 hPa | - | - | 27 W/m² | - |
| 1777963479 | 18.33° C | 47% | 1014.4 hPa | - | - | 26 W/m² | - |
| 1777963119 | 17.78° C | 48% | 1014.3 hPa | - | - | 26 W/m² | - |
| 1777962759 | 17.78° C | 48% | 1014.3 hPa | - | - | 26 W/m² | - |
| 1777962399 | 17.78° C | 49% | 1014.3 hPa | - | - | 26 W/m² | - |
| 1777962039 | 17.22° C | 50% | 1014.2 hPa | - | - | 25 W/m² | - |
| 1777961679 | 17.22° C | 50% | 1014.2 hPa | - | - | 25 W/m² | - |
| 1777961319 | 16.67° C | 51% | 1014.3 hPa | - | - | 24 W/m² | - |
| 1777960959 | 16.67° C | 52% | 1014.3 hPa | - | - | 24 W/m² | - |
| 1777960599 | 16.11° C | 53% | 1014.3 hPa | - | - | 23 W/m² | - |
| 1777960239 | 16.11° C | 54% | 1014.2 hPa | - | - | 23 W/m² | - |
| 1777959879 | 15.56° C | 55% | 1014.2 hPa | - | - | 22 W/m² | - |
* Rain since midnight (hover to see other rain measurements)
** Current wind speed in m/s (hover to see current wind gust speed)